M I D A S
Marine Information and Data Acquisition System
Tripno 1667 of the Zeeleeuw from 2009-03-30 06:45:18 to 2009-03-30 15:00:56
Back to CruiseResearch ActivitiesStationsMapUnderway DataData graphs

EquipmentUnitsComments
TimeDGPSUTC
LatitudeDGPSDM.mWGS84
LongitudeDGPSDM.mWGS84
SpeedMeteo Stationm/sRelative wind speed
DirectionMeteo StationdegRelative wind direction
TemperatureMeteo Stationdeg CelciusAir temperature
PressureMeteo StationPaAtmospheric pressure
HumidityMeteo Station%Relative humidity
Missing or incorrect values are displayed as -999
Metereological data collected by the RV Zeeleeuw from 2009-03-30 05:57:48 to 2009-03-30 15:07:51
                                                                                    Next 1000 lines
Time Latitude Longitude Speed Direction Temperature Pressure Humidity
2009-03-30 05:57:58 51°13.664 2°55.956 1.5 350 3.4 101900 72
2009-03-30 05:58:03 51°13.664 2°55.956 1.8 356 3.4 101900 72
2009-03-30 05:58:08 51°13.664 2°55.956 2.1 358 3.4 101900 72
2009-03-30 05:58:13 51°13.664 2°55.956 1.9 357 3.4 101900 72
2009-03-30 05:58:18 51°13.665 2°55.955 1.6 358 3.4 101900 72
2009-03-30 05:58:23 51°13.664 2°55.956 1.6 5 3.4 101900 72
2009-03-30 05:58:28 51°13.664 2°55.956 1.8 5 3.4 101900 72
2009-03-30 05:58:33 51°13.664 2°55.956 1.6 354 3.4 101900 72
2009-03-30 05:58:38 51°13.665 2°55.956 1.8 358 3.4 101900 72
2009-03-30 05:58:43 51°13.665 2°55.956 1.2 3 3.4 101900 72
2009-03-30 05:58:48 51°13.665 2°55.956 1.1 5 3.4 101900 72
2009-03-30 05:58:53 51°13.664 2°55.956 1.2 11 3.4 101900 72
2009-03-30 05:58:58 51°13.664 2°55.956 1.5 358 3.4 101900 72
2009-03-30 05:59:03 51°13.664 2°55.956 1.9 351 3.4 101900 72
2009-03-30 05:59:08 51°13.664 2°55.956 1.4 2 3.4 101900 72
2009-03-30 05:59:13 51°13.664 2°55.956 1.4 2 3.4 101900 72
2009-03-30 05:59:18 51°13.664 2°55.956 1.6 2 3.4 101900 72
2009-03-30 05:59:23 51°13.664 2°55.957 1.6 353 3.4 101900 72
2009-03-30 05:59:28 51°13.664 2°55.957 2 351 3.4 101900 72
2009-03-30 05:59:33 51°13.664 2°55.957 1.8 4 3.4 101900 72
2009-03-30 05:59:39 51°13.664 2°55.957 1.6 351 3.4 101900 72
2009-03-30 05:59:43 51°13.664 2°55.957 1.6 359 3.4 101900 72
2009-03-30 05:59:48 51°13.664 2°55.957 1.5 3 3.4 101900 72
2009-03-30 05:59:53 51°13.664 2°55.957 1.9 347 3.4 101900 72
2009-03-30 05:59:58 51°13.664 2°55.957 2.1 352 3.4 101900 72
2009-03-30 06:00:03 51°13.664 2°55.957 2.5 352 3.4 101900 72
2009-03-30 06:00:09 51°13.664 2°55.957 2.8 357 3.4 101900 72
2009-03-30 06:00:13 51°13.664 2°55.957 1.4 5 3.4 101900 72
2009-03-30 06:00:17 51°13.664 2°55.957 1.5 5 3.4 101900 72
2009-03-30 06:00:24 51°13.663 2°55.957 1.9 352 3.4 101900 72
2009-03-30 06:00:29 51°13.663 2°55.957 2 348 3.4 101900 72
2009-03-30 06:00:34 51°13.663 2°55.957 1.4 5 3.4 101900 72
2009-03-30 06:00:39 51°13.663 2°55.957 1.6 4 3.4 101900 72
2009-03-30 06:00:44 51°13.663 2°55.957 2.1 353 3.4 101900 72
2009-03-30 06:00:49 51°13.663 2°55.957 2.3 358 3.4 101900 72
2009-03-30 06:00:54 51°13.663 2°55.957 2.1 360 3.4 101900 72
2009-03-30 06:00:58 51°13.663 2°55.957 1.9 350 3.4 101900 72
2009-03-30 06:01:03 51°13.663 2°55.957 1.6 10 3.4 101900 72
2009-03-30 06:01:08 51°13.663 2°55.957 2.1 2 3.4 101900 72
2009-03-30 06:01:13 51°13.663 2°55.957 2.8 359 3.4 101900 72
2009-03-30 06:01:18 51°13.664 2°55.957 2.6 360 3.4 101900 72
2009-03-30 06:01:24 51°13.664 2°55.957 2.8 352 3.4 101900 72
2009-03-30 06:01:28 51°13.664 2°55.957 2.2 2 3.4 101900 72
2009-03-30 06:01:33 51°13.664 2°55.957 1.7 356 3.4 101900 72
2009-03-30 06:01:38 51°13.664 2°55.957 1.9 359 3.4 101900 72
2009-03-30 06:01:44 51°13.664 2°55.957 2.8 352 3.4 101900 72
2009-03-30 06:01:48 51°13.664 2°55.957 2.8 354 3.4 101900 72
2009-03-30 06:01:53 51°13.664 2°55.957 2.2 357 3.4 101900 72
2009-03-30 06:01:58 51°13.664 2°55.958 2.1 356 3.4 101900 72
2009-03-30 06:02:03 51°13.664 2°55.957 2 351 3.4 101900 72
2009-03-30 06:02:08 51°13.664 2°55.957 2.1 354 3.4 101900 72
2009-03-30 06:02:13 51°13.664 2°55.958 1.7 353 3.4 101900 72
2009-03-30 06:02:18 51°13.664 2°55.958 1.4 354 3.4 101900 72
2009-03-30 06:02:24 51°13.664 2°55.958 1.6 343 3.4 101900 72
2009-03-30 06:02:29 51°13.664 2°55.957 1.7 351 3.4 101910 72
2009-03-30 06:02:33 51°13.664 2°55.957 1.6 356 3.4 101910 72
2009-03-30 06:02:38 51°13.663 2°55.957 1.9 353 3.4 101900 72
2009-03-30 06:02:43 51°13.663 2°55.957 1.4 8 3.4 101900 72
2009-03-30 06:02:48 51°13.663 2°55.957 1.3 7 3.4 101900 72
2009-03-30 06:02:53 51°13.663 2°55.957 2.5 355 3.4 101900 72
2009-03-30 06:02:58 51°13.663 2°55.958 2.8 359 3.4 101900 72
2009-03-30 06:03:03 51°13.664 2°55.958 2 7 3.4 101900 72
2009-03-30 06:03:09 51°13.664 2°55.958 2.3 350 3.4 101900 72
2009-03-30 06:03:14 51°13.664 2°55.958 1.9 10 3.4 101900 72
2009-03-30 06:03:19 51°13.664 2°55.958 1.7 13 3.4 101900 72
2009-03-30 06:03:23 51°13.664 2°55.958 1.8 4 3.4 101900 72
2009-03-30 06:03:29 51°13.664 2°55.958 2 357 3.4 101910 72
2009-03-30 06:03:33 51°13.664 2°55.958 1.2 11 3.4 101910 72
2009-03-30 06:03:37 51°13.663 2°55.958 1.1 15 3.4 101910 72
2009-03-30 06:03:43 51°13.663 2°55.958 1.7 8 3.4 101910 72
2009-03-30 06:03:48 51°13.663 2°55.958 1.7 353 3.4 101900 72
2009-03-30 06:03:54 51°13.663 2°55.958 1 7 3.4 101900 72
2009-03-30 06:03:58 51°13.663 2°55.958 0.9 12 3.5 101910 72
2009-03-30 06:04:04 51°13.663 2°55.958 1.5 6 3.5 101910 72
2009-03-30 06:04:08 51°13.663 2°55.958 1.3 5 3.5 101910 72
2009-03-30 06:04:13 51°13.663 2°55.958 1.1 19 3.5 101910 72
2009-03-30 06:04:18 51°13.663 2°55.958 1.3 7 3.5 101900 72
2009-03-30 06:04:24 51°13.663 2°55.957 1.4 351 3.5 101900 72
2009-03-30 06:04:28 51°13.662 2°55.957 1.8 350 3.5 101900 72
2009-03-30 06:04:33 51°13.663 2°55.957 1.3 357 3.5 101900 72
2009-03-30 06:04:38 51°13.664 2°55.958 1.8 356 3.4 101910 72
2009-03-30 06:04:44 51°13.665 2°55.958 1.9 20 3.4 101910 72
2009-03-30 06:04:48 51°13.665 2°55.958 2.2 24 3.4 101900 72
2009-03-30 06:04:53 51°13.665 2°55.958 1.6 27 3.4 101900 72
2009-03-30 06:04:58 51°13.664 2°55.957 1.8 22 3.5 101900 72
2009-03-30 06:05:04 51°13.664 2°55.958 1.8 344 3.5 101900 72
2009-03-30 06:05:09 51°13.664 2°55.958 1.8 356 3.4 101910 72
2009-03-30 06:05:13 51°13.664 2°55.958 3.5 5 3.4 101910 72
2009-03-30 06:05:18 51°13.664 2°55.958 3.6 8 3.5 101900 72
2009-03-30 06:05:23 51°13.662 2°55.957 3.8 11 3.5 101900 72
2009-03-30 06:05:29 51°13.662 2°55.957 3.5 15 3.4 101910 72
2009-03-30 06:05:34 51°13.662 2°55.957 2.7 6 3.4 101910 72
2009-03-30 06:05:39 51°13.662 2°55.957 2.8 12 3.4 101910 72
2009-03-30 06:05:43 51°13.662 2°55.957 1.9 15 3.4 101910 72
2009-03-30 06:05:49 51°13.662 2°55.957 1.8 7 3.4 101900 72
2009-03-30 06:05:54 51°13.662 2°55.957 2.2 9 3.4 101900 72
2009-03-30 06:05:58 51°13.661 2°55.957 1.9 359 3.4 101900 72
2009-03-30 06:06:03 51°13.662 2°55.957 1.8 10 3.4 101900 72
2009-03-30 06:06:09 51°13.662 2°55.957 2 8 3.4 101900 71
2009-03-30 06:06:14 51°13.662 2°55.957 1.6 357 3.4 101900 71
2009-03-30 06:06:18 51°13.662 2°55.957 2.3 349 3.4 101900 71
2009-03-30 06:06:24 51°13.662 2°55.957 1.9 350 3.4 101900 71
2009-03-30 06:06:29 51°13.662 2°55.957 1.8 359 3.4 101910 71
2009-03-30 06:06:34 51°13.662 2°55.957 1.9 10 3.4 101910 71
2009-03-30 06:06:38 51°13.663 2°55.957 1.7 8 3.4 101910 71
2009-03-30 06:06:44 51°13.663 2°55.957 1.4 359 3.4 101910 71
2009-03-30 06:06:48 51°13.663 2°55.957 0.9 354 3.4 101910 71
2009-03-30 06:06:54 51°13.664 2°55.957 1.9 7 3.4 101910 71
2009-03-30 06:06:58 51°13.664 2°55.957 1.6 356 3.4 101910 72
2009-03-30 06:07:04 51°13.664 2°55.957 1.6 3 3.4 101910 72
2009-03-30 06:07:08 51°13.664 2°55.957 1.7 360 3.4 101910 72
2009-03-30 06:07:13 51°13.664 2°55.957 1.3 8 3.4 101910 72
2009-03-30 06:07:18 51°13.664 2°55.957 2 357 3.4 101900 72
2009-03-30 06:07:24 51°13.664 2°55.957 2 9 3.4 101900 72
2009-03-30 06:07:28 51°13.664 2°55.957 2 -999 3.4 101910 72
2009-03-30 06:07:33 51°13.664 2°55.957 2.1 -999 3.4 101910 72
2009-03-30 06:07:38 51°13.665 2°55.957 2.8 351 3.4 101910 72
2009-03-30 06:07:44 51°13.665 2°55.957 2.6 349 3.4 101910 72
2009-03-30 06:07:49 51°13.665 2°55.957 2.1 351 3.4 101910 72
2009-03-30 06:07:53 51°13.665 2°55.957 1.6 360 3.4 101910 72
2009-03-30 06:07:58 51°13.665 2°55.957 1.8 2 3.5 101910 72
2009-03-30 06:08:03 51°13.665 2°55.957 2.3 352 3.5 101910 72
2009-03-30 06:08:09 51°13.665 2°55.958 1.8 354 3.5 101910 72
2009-03-30 06:08:14 51°13.665 2°55.958 1.7 359 3.5 101910 72
2009-03-30 06:08:19 51°13.665 2°55.958 1.4 5 3.5 101910 72
2009-03-30 06:08:23 51°13.665 2°55.958 1.5 4 3.5 101910 72
2009-03-30 06:08:29 51°13.665 2°55.958 1.5 359 3.5 101910 71
2009-03-30 06:08:34 51°13.665 2°55.958 1.6 353 3.5 101910 71
2009-03-30 06:08:39 51°13.665 2°55.958 1.7 2 3.5 101910 71
2009-03-30 06:08:43 51°13.665 2°55.958 1.7 351 3.5 101910 71
2009-03-30 06:08:49 51°13.665 2°55.958 1.5 352 3.5 101910 71
2009-03-30 06:08:54 51°13.664 2°55.958 1.7 11 3.5 101910 71
2009-03-30 06:08:58 51°13.665 2°55.958 1.4 16 3.5 101910 71
2009-03-30 06:09:04 51°13.665 2°55.958 1.7 9 3.5 101910 71
2009-03-30 06:09:09 51°13.665 2°55.958 1.4 9 3.4 101910 71
2009-03-30 06:09:14 51°13.665 2°55.958 1.7 359 3.4 101910 71
2009-03-30 06:09:18 51°13.665 2°55.958 1.6 1 3.5 101910 71
2009-03-30 06:09:24 51°13.665 2°55.958 1.1 358 3.5 101910 71
2009-03-30 06:09:28 51°13.665 2°55.958 2.5 359 3.5 101910 71
2009-03-30 06:09:33 51°13.665 2°55.958 2.3 1 3.5 101910 71
2009-03-30 06:09:38 51°13.664 2°55.959 2.5 3 3.5 101910 71
2009-03-30 06:09:44 51°13.664 2°55.958 2.5 358 3.5 101910 71
2009-03-30 06:09:48 51°13.664 2°55.958 2 -999 3.5 101910 71
2009-03-30 06:09:53 51°13.664 2°55.958 1.9 8 3.5 101910 71
2009-03-30 06:09:58 51°13.664 2°55.959 2 13 3.5 101910 71
2009-03-30 06:10:04 51°13.664 2°55.958 1.5 13 3.5 101910 71
2009-03-30 06:10:08 51°13.664 2°55.958 1.5 12 3.5 101910 71
2009-03-30 06:10:13 51°13.664 2°55.958 1.3 2 3.5 101910 71
2009-03-30 06:10:18 51°13.664 2°55.958 1.3 8 3.5 101910 71
2009-03-30 06:10:24 51°13.664 2°55.958 0.8 358 3.5 101910 71
2009-03-30 06:10:29 51°13.664 2°55.958 1.2 6 3.5 101910 71
2009-03-30 06:10:33 51°13.664 2°55.958 2.4 8 3.5 101910 71
2009-03-30 06:10:39 51°13.664 2°55.958 1.8 9 3.5 101910 71
2009-03-30 06:10:44 51°13.664 2°55.958 2.4 18 3.5 101910 71
2009-03-30 06:10:49 51°13.664 2°55.958 2.4 15 3.5 101910 71
2009-03-30 06:10:54 51°13.664 2°55.958 1.9 11 3.5 101910 71
2009-03-30 06:10:59 51°13.664 2°55.958 1.9 10 3.5 101910 71
2009-03-30 06:11:03 51°13.664 2°55.958 2.5 15 3.5 101910 71
2009-03-30 06:11:09 51°13.664 2°55.958 2.3 12 3.5 101910 71
2009-03-30 06:11:14 51°13.664 2°55.958 2.2 16 3.5 101910 71
2009-03-30 06:11:18 51°13.664 2°55.958 2.5 16 3.5 101910 71
2009-03-30 06:11:23 51°13.664 2°55.958 1.8 8 3.5 101910 71
2009-03-30 06:11:29 51°13.664 2°55.958 2.1 7 3.5 101910 71
2009-03-30 06:11:34 51°13.664 2°55.958 1.8 353 3.5 101910 71
2009-03-30 06:11:38 51°13.664 2°55.958 1.4 16 3.5 101910 71
2009-03-30 06:11:43 51°13.664 2°55.958 1.8 353 3.5 101910 71
2009-03-30 06:11:48 51°13.664 2°55.958 2.1 352 3.5 101910 71
2009-03-30 06:11:53 51°13.664 2°55.958 1.6 352 3.5 101910 71
2009-03-30 06:11:58 51°13.664 2°55.958 1.6 349 3.5 101910 71
2009-03-30 06:12:03 51°13.664 2°55.958 1.6 -999 3.5 101910 71
2009-03-30 06:12:08 51°13.664 2°55.958 1.7 2 3.5 101910 71
2009-03-30 06:12:13 51°13.664 2°55.958 1.6 17 3.5 101910 71
2009-03-30 06:12:18 51°13.664 2°55.958 1.5 2 3.5 101910 71
2009-03-30 06:12:23 51°13.664 2°55.958 1.4 8 3.5 101910 71
2009-03-30 06:12:28 51°13.664 2°55.958 1.7 14 3.5 101910 71
2009-03-30 06:12:33 51°13.664 2°55.958 1.7 8 3.5 101910 71
2009-03-30 06:12:38 51°13.664 2°55.958 1.4 359 3.5 101910 71
2009-03-30 06:12:43 51°13.664 2°55.958 1.5 350 3.5 101910 71
2009-03-30 06:12:48 51°13.664 2°55.958 1.5 355 3.5 101910 71
2009-03-30 06:12:53 51°13.664 2°55.958 1.5 355 3.5 101910 71
2009-03-30 06:12:58 51°13.664 2°55.958 1.4 -999 3.5 101910 71
2009-03-30 06:13:03 51°13.664 2°55.958 1.4 349 3.5 101910 71
2009-03-30 06:13:08 51°13.664 2°55.958 1.3 359 3.5 101910 71
2009-03-30 06:13:13 51°13.664 2°55.958 2 9 3.5 101910 71
2009-03-30 06:13:18 51°13.664 2°55.958 2.7 10 3.5 101910 71
2009-03-30 06:13:23 51°13.664 2°55.958 3.4 14 3.5 101910 71
2009-03-30 06:13:28 51°13.664 2°55.958 2.7 28 3.5 101910 71
2009-03-30 06:13:33 51°13.664 2°55.958 2.7 21 3.5 101910 71
2009-03-30 06:13:38 51°13.664 2°55.958 2.6 22 3.5 101910 71
2009-03-30 06:13:43 51°13.664 2°55.958 2 10 3.5 101910 71
2009-03-30 06:13:48 51°13.664 2°55.958 2.6 10 3.5 101910 71
2009-03-30 06:13:53 51°13.664 2°55.958 3 4 3.5 101910 71
2009-03-30 06:13:58 51°13.664 2°55.958 3.6 11 3.5 101910 71
2009-03-30 06:14:03 51°13.664 2°55.957 2.3 7 3.5 101910 71
2009-03-30 06:14:08 51°13.664 2°55.957 2.7 13 3.5 101910 71
2009-03-30 06:14:13 51°13.664 2°55.957 1.4 5 3.5 101910 71
2009-03-30 06:14:18 51°13.664 2°55.958 1.3 1 3.5 101910 71
2009-03-30 06:14:23 51°13.664 2°55.958 1.5 341 3.5 101910 71
2009-03-30 06:14:28 51°13.664 2°55.958 1.1 349 3.5 101910 71
2009-03-30 06:14:33 51°13.664 2°55.958 1.3 350 3.5 101910 71
2009-03-30 06:14:38 51°13.664 2°55.958 1.1 352 3.5 101920 71
2009-03-30 06:14:43 51°13.664 2°55.958 1.8 -999 3.5 101920 71
2009-03-30 06:14:48 51°13.664 2°55.958 2.1 -999 3.5 101920 71
2009-03-30 06:14:53 51°13.664 2°55.958 1.3 10 3.5 101920 71
2009-03-30 06:14:58 51°13.664 2°55.958 1.3 9 3.5 101920 71
2009-03-30 06:15:03 51°13.664 2°55.958 1 8 3.5 101920 71
2009-03-30 06:15:08 51°13.664 2°55.958 1 7 3.5 101920 71
2009-03-30 06:15:13 51°13.664 2°55.958 1.8 14 3.5 101920 71
2009-03-30 06:15:18 51°13.664 2°55.957 1.5 23 3.5 101920 71
2009-03-30 06:15:23 51°13.664 2°55.958 1 23 3.5 101920 71
2009-03-30 06:15:28 51°13.664 2°55.958 0.9 13 3.5 101920 71
2009-03-30 06:15:33 51°13.664 2°55.958 2.1 16 3.5 101920 71
2009-03-30 06:15:38 51°13.664 2°55.958 2.6 12 3.5 101910 71
2009-03-30 06:15:43 51°13.664 2°55.957 2.9 10 3.5 101910 71
2009-03-30 06:15:48 51°13.664 2°55.958 2.8 15 3.5 101910 71
2009-03-30 06:15:53 51°13.664 2°55.957 3.3 13 3.5 101910 71
2009-03-30 06:15:58 51°13.664 2°55.958 3 13 3.5 101920 71
2009-03-30 06:16:03 51°13.664 2°55.958 3.8 13 3.5 101920 71
2009-03-30 06:16:08 51°13.664 2°55.958 3.6 15 3.5 101920 71
2009-03-30 06:16:13 51°13.664 2°55.958 2.7 13 3.5 101920 71
2009-03-30 06:16:18 51°13.664 2°55.958 2.4 10 3.5 101920 71
2009-03-30 06:16:23 51°13.664 2°55.958 2.2 7 3.5 101920 71
2009-03-30 06:16:28 51°13.664 2°55.958 2 9 3.5 101920 71
2009-03-30 06:16:33 51°13.664 2°55.958 1.7 7 3.5 101920 71
2009-03-30 06:16:38 51°13.664 2°55.958 2.2 12 3.5 101920 71
2009-03-30 06:16:43 51°13.664 2°55.958 3 13 3.5 101920 71
2009-03-30 06:16:48 51°13.664 2°55.958 3 10 3.5 101920 71
2009-03-30 06:16:53 51°13.664 2°55.958 2.1 11 3.5 101920 71
2009-03-30 06:16:58 51°13.664 2°55.958 2.1 13 3.5 101920 71
2009-03-30 06:17:03 51°13.664 2°55.957 2.7 14 3.5 101920 71
2009-03-30 06:17:08 51°13.663 2°55.957 2 7 3.5 101920 71
2009-03-30 06:17:13 51°13.663 2°55.957 2.9 7 3.5 101920 71
2009-03-30 06:17:18 51°13.664 2°55.957 2.8 3 3.5 101920 71
2009-03-30 06:17:23 51°13.664 2°55.957 2.5 16 3.5 101920 71
2009-03-30 06:17:28 51°13.664 2°55.957 3.4 14 3.5 101920 71
2009-03-30 06:17:33 51°13.664 2°55.957 2.7 12 3.5 101920 71
2009-03-30 06:17:38 51°13.664 2°55.957 3 13 3.5 101920 71
2009-03-30 06:17:43 51°13.664 2°55.957 2.5 11 3.5 101920 71
2009-03-30 06:17:48 51°13.664 2°55.957 2.5 16 3.5 101920 71
2009-03-30 06:17:53 51°13.664 2°55.957 2.4 8 3.5 101920 71
2009-03-30 06:17:58 51°13.664 2°55.957 2.6 8 3.5 101920 71
2009-03-30 06:18:03 51°13.664 2°55.957 2.5 5 3.5 101920 71
2009-03-30 06:18:08 51°13.664 2°55.957 2.3 5 3.5 101920 71
2009-03-30 06:18:13 51°13.664 2°55.957 2.3 16 3.5 101920 71
2009-03-30 06:18:18 51°13.664 2°55.957 1.8 14 3.5 101920 71
2009-03-30 06:18:23 51°13.664 2°55.957 1.8 10 3.5 101920 71
2009-03-30 06:18:28 51°13.664 2°55.957 1.8 15 3.5 101920 71
2009-03-30 06:18:33 51°13.664 2°55.957 1.8 10 3.5 101920 71
2009-03-30 06:18:38 51°13.664 2°55.957 1.4 359 3.5 101920 71
2009-03-30 06:18:43 51°13.664 2°55.957 1.9 7 3.5 101920 71
2009-03-30 06:18:48 51°13.664 2°55.957 1.9 6 3.5 101920 71
2009-03-30 06:18:53 51°13.664 2°55.957 1.6 18 3.5 101920 71
2009-03-30 06:18:58 51°13.664 2°55.957 1.6 18 3.5 101920 71
2009-03-30 06:19:03 51°13.664 2°55.957 1.3 4 3.5 101920 71
2009-03-30 06:19:08 51°13.664 2°55.957 1 4 3.5 101920 71
2009-03-30 06:19:13 51°13.664 2°55.957 1.5 18 3.5 101920 71
2009-03-30 06:19:18 51°13.664 2°55.957 1.2 18 3.5 101920 71
2009-03-30 06:19:23 51°13.663 2°55.958 1.9 10 3.5 101920 71
2009-03-30 06:19:28 51°13.663 2°55.958 1.9 9 3.5 101920 71
2009-03-30 06:19:33 51°13.663 2°55.958 2.1 12 3.5 101920 71
2009-03-30 06:19:38 51°13.663 2°55.958 2 15 3.5 101920 71
2009-03-30 06:19:43 51°13.663 2°55.958 2 358 3.5 101920 71
2009-03-30 06:19:48 51°13.663 2°55.958 1.6 6 3.5 101920 71
2009-03-30 06:19:53 51°13.663 2°55.958 2.1 15 3.5 101920 71
2009-03-30 06:19:58 51°13.663 2°55.958 2 20 3.5 101920 71
2009-03-30 06:20:03 51°13.663 2°55.958 1.9 25 3.5 101920 71
2009-03-30 06:20:08 51°13.663 2°55.958 2.1 22 3.5 101920 71
2009-03-30 06:20:13 51°13.663 2°55.958 2.3 14 3.5 101920 71
2009-03-30 06:20:18 51°13.663 2°55.958 2.6 13 3.5 101920 71
2009-03-30 06:20:23 51°13.663 2°55.958 1.6 11 3.5 101920 71
2009-03-30 06:20:28 51°13.664 2°55.958 1.6 5 3.5 101920 71
2009-03-30 06:20:33 51°13.664 2°55.959 2.5 6 3.5 101920 71
2009-03-30 06:20:38 51°13.664 2°55.959 2.5 5 3.5 101920 71
2009-03-30 06:20:43 51°13.664 2°55.959 2.4 10 3.5 101920 71
2009-03-30 06:20:48 51°13.664 2°55.959 2.1 24 3.5 101930 71
2009-03-30 06:20:53 51°13.664 2°55.959 1.8 10 3.5 101930 71
2009-03-30 06:20:58 51°13.664 2°55.959 1.9 17 3.5 101930 71
2009-03-30 06:21:03 51°13.664 2°55.959 1.7 13 3.5 101930 71
2009-03-30 06:21:08 51°13.663 2°55.959 1.7 18 3.5 101930 71
2009-03-30 06:21:13 51°13.663 2°55.959 1.8 19 3.5 101930 71
2009-03-30 06:21:18 51°13.663 2°55.959 1.5 20 3.5 101930 71
2009-03-30 06:21:23 51°13.663 2°55.959 1.4 30 3.5 101930 71
2009-03-30 06:21:28 51°13.663 2°55.959 1.4 30 3.5 101930 71
2009-03-30 06:21:33 51°13.663 2°55.959 1.1 43 3.5 101930 71
2009-03-30 06:21:38 51°13.663 2°55.959 0.9 42 3.5 101920 71
2009-03-30 06:21:43 51°13.663 2°55.959 1.8 30 3.5 101920 71
2009-03-30 06:21:48 51°13.663 2°55.959 2.4 36 3.5 101930 71
2009-03-30 06:21:53 51°13.664 2°55.959 2.3 19 3.5 101930 71
2009-03-30 06:21:58 51°13.663 2°55.959 2.4 15 3.5 101930 71
2009-03-30 06:22:03 51°13.663 2°55.959 1.7 4 3.5 101930 71
2009-03-30 06:22:08 51°13.663 2°55.959 1.9 6 3.5 101930 71
2009-03-30 06:22:13 51°13.663 2°55.959 2.4 27 3.5 101930 71
2009-03-30 06:22:18 51°13.663 2°55.959 2.2 33 3.6 101930 71
2009-03-30 06:22:23 51°13.663 2°55.959 2.1 25 3.6 101930 71
2009-03-30 06:22:28 51°13.663 2°55.959 1.7 17 3.5 101930 71
2009-03-30 06:22:33 51°13.663 2°55.959 1.9 9 3.5 101930 71
2009-03-30 06:22:38 51°13.664 2°55.959 1.7 14 3.6 101930 71
2009-03-30 06:22:43 51°13.664 2°55.959 1.9 9 3.6 101930 71
2009-03-30 06:22:48 51°13.664 2°55.959 1.8 15 3.6 101930 71
2009-03-30 06:22:53 51°13.664 2°55.959 1.4 25 3.6 101930 71
2009-03-30 06:22:58 51°13.664 2°55.959 1.7 16 3.6 101930 71
2009-03-30 06:23:03 51°13.664 2°55.959 2.5 13 3.6 101930 71
2009-03-30 06:23:08 51°13.664 2°55.959 2.2 8 3.6 101930 71
2009-03-30 06:23:13 51°13.664 2°55.959 2.6 14 3.6 101930 71
2009-03-30 06:23:19 51°13.664 2°55.959 2.6 14 3.6 101930 71
2009-03-30 06:23:24 51°13.664 2°55.959 2.6 14 3.6 101930 71
2009-03-30 06:23:29 51°13.664 2°55.959 2.6 14 3.6 101930 71
2009-03-30 06:23:34 51°13.664 2°55.959 2.6 14 3.6 101930 71
2009-03-30 06:23:39 51°13.664 2°55.959 2.6 14 -999 -999 -999
2009-03-30 06:23:44 51°13.664 2°55.959 -999 -999 -999 -999 -999
2009-03-30 06:23:49 51°13.664 2°55.959 -999 -999 -999 -999 -999
2009-03-30 06:23:54 51°13.664 2°55.959 2.7 8 -999 -999 -999
2009-03-30 06:23:58 51°13.664 2°55.959 3 9 -999 -999 -999
2009-03-30 06:24:03 51°13.664 2°55.959 2.1 12 -999 -999 -999
2009-03-30 06:24:08 51°13.664 2°55.959 3.2 12 -999 -999 -999
2009-03-30 06:24:13 51°13.664 2°55.959 2.5 4 -999 -999 -999
2009-03-30 06:24:18 51°13.664 2°55.959 3.5 15 3.5 -999 71
2009-03-30 06:24:23 51°13.664 2°55.959 3 18 3.5 -999 71
2009-03-30 06:24:28 51°13.664 2°55.959 3.5 19 3.5 -999 71
2009-03-30 06:24:33 51°13.664 2°55.959 3.4 14 3.5 -999 71
2009-03-30 06:24:38 51°13.664 2°55.959 2.8 1 3.5 101920 71
2009-03-30 06:24:44 51°13.664 2°55.959 2.8 13 3.5 101920 71
2009-03-30 06:24:49 51°13.664 2°55.959 3.4 4 3.6 101920 71
2009-03-30 06:24:54 51°13.664 2°55.959 3.8 14 3.6 101920 71
2009-03-30 06:24:58 51°13.664 2°55.959 3.8 10 3.6 101930 70
2009-03-30 06:25:03 51°13.664 2°55.959 2.5 24 3.6 101930 70
2009-03-30 06:25:07 51°13.664 2°55.959 2.9 5 3.6 101920 71
2009-03-30 06:25:13 51°13.664 2°55.959 3 10 3.6 101920 71
2009-03-30 06:25:18 51°13.664 2°55.959 3.3 10 3.5 101920 71
2009-03-30 06:25:23 51°13.664 2°55.959 3.5 15 3.5 101920 71
2009-03-30 06:25:28 51°13.664 2°55.959 3.3 5 3.6 101930 70
2009-03-30 06:25:33 51°13.664 2°55.959 2.5 20 3.6 101930 70
2009-03-30 06:25:38 51°13.664 2°55.959 2.3 4 3.6 101930 70
2009-03-30 06:25:43 51°13.663 2°55.959 2 4 3.6 101930 70
2009-03-30 06:25:47 51°13.663 2°55.959 2.8 13 3.6 101920 70
2009-03-30 06:25:52 51°13.663 2°55.959 2.6 17 3.6 101920 70
2009-03-30 06:25:57 51°13.663 2°55.959 2.3 9 3.6 101920 70
2009-03-30 06:26:02 51°13.663 2°55.959 2.8 6 3.6 101920 70
2009-03-30 06:26:07 51°13.663 2°55.959 2.6 10 3.6 101930 70
2009-03-30 06:26:11 51°13.663 2°55.959 2.4 5 3.6 101930 70
2009-03-30 06:26:16 51°13.663 2°55.959 2.6 10 3.6 101930 70
2009-03-30 06:26:21 51°13.663 2°55.959 3.1 7 3.6 101930 70
2009-03-30 06:26:26 51°13.663 2°55.959 2.7 20 3.6 101930 70
2009-03-30 06:26:31 51°13.663 2°55.959 2.8 7 3.6 101930 70
2009-03-30 06:26:36 51°13.664 2°55.959 2.5 15 3.6 101920 70
2009-03-30 06:26:41 51°13.664 2°55.959 2.4 20 3.6 101920 70
2009-03-30 06:26:46 51°13.664 2°55.959 2.9 15 3.6 101930 70
2009-03-30 06:26:51 51°13.664 2°55.959 2.9 14 3.6 101930 70
2009-03-30 06:26:56 51°13.664 2°55.959 2.9 11 3.5 101930 70
2009-03-30 06:27:01 51°13.664 2°55.959 3.2 11 3.5 101930 70
2009-03-30 06:27:05 51°13.664 2°55.959 2.1 15 3.6 101920 70
2009-03-30 06:27:10 51°13.664 2°55.958 1.9 25 3.6 101920 70
2009-03-30 06:27:15 51°13.663 2°55.958 2 20 3.5 101930 70
2009-03-30 06:27:20 51°13.663 2°55.958 1.7 15 3.5 101930 70
2009-03-30 06:27:25 51°13.663 2°55.958 1.7 21 3.5 101930 70
2009-03-30 06:27:30 51°13.663 2°55.958 1.9 17 3.5 101930 70
2009-03-30 06:27:35 51°13.663 2°55.958 2 17 3.6 101930 70
2009-03-30 06:27:42 51°13.663 2°55.958 1.7 16 3.6 101930 70
2009-03-30 06:27:46 51°13.663 2°55.958 2 20 3.5 101930 70
2009-03-30 06:27:51 51°13.663 2°55.958 2.5 30 3.5 101930 70
2009-03-30 06:27:56 51°13.663 2°55.958 1.9 19 3.5 101930 70
2009-03-30 06:28:01 51°13.663 2°55.958 1.5 10 3.5 101930 70
2009-03-30 06:28:06 51°13.663 2°55.958 1.3 18 3.6 101930 70
2009-03-30 06:28:10 51°13.663 2°55.958 1.4 18 3.6 101930 70
2009-03-30 06:28:15 51°13.663 2°55.958 2 8 3.6 101930 70
2009-03-30 06:28:20 51°13.663 2°55.958 1.7 15 3.6 101930 70
2009-03-30 06:28:25 51°13.663 2°55.958 1.7 18 3.5 101930 70
2009-03-30 06:28:30 51°13.663 2°55.958 1.5 1 3.5 101930 70
2009-03-30 06:28:35 51°13.663 2°55.958 1.4 12 3.5 101930 70
2009-03-30 06:28:40 51°13.663 2°55.958 1.3 11 3.5 101930 70
2009-03-30 06:28:46 51°13.663 2°55.958 1.5 12 3.6 101930 70
2009-03-30 06:28:51 51°13.663 2°55.958 1.9 17 3.6 101930 70
2009-03-30 06:28:55 51°13.663 2°55.958 1.8 17 3.6 101930 70
2009-03-30 06:29:00 51°13.663 2°55.958 1.8 14 3.6 101930 70
2009-03-30 06:29:05 51°13.663 2°55.958 2 17 3.6 101930 70
2009-03-30 06:29:10 51°13.663 2°55.958 1.7 12 3.6 101930 70
2009-03-30 06:29:15 51°13.663 2°55.958 1.5 12 3.6 101930 70
2009-03-30 06:29:20 51°13.664 2°55.958 1.3 4 3.6 101930 70
2009-03-30 06:29:25 51°13.663 2°55.958 1.6 23 3.6 101930 70
2009-03-30 06:29:30 51°13.664 2°55.958 2 18 3.6 101930 70
2009-03-30 06:29:35 51°13.664 2°55.958 2 7 3.6 101930 70
2009-03-30 06:29:40 51°13.664 2°55.958 2.2 6 3.6 101930 70
2009-03-30 06:29:45 51°13.664 2°55.958 2.3 11 3.6 101930 70
2009-03-30 06:29:50 51°13.664 2°55.958 2.4 24 3.6 101930 70
2009-03-30 06:29:55 51°13.664 2°55.958 2.3 22 3.6 101930 70
2009-03-30 06:30:00 51°13.664 2°55.958 1.6 23 3.6 101930 70
2009-03-30 06:30:05 51°13.664 2°55.958 1.6 22 3.6 101930 70
2009-03-30 06:30:10 51°13.664 2°55.958 1.4 8 3.6 101930 70
2009-03-30 06:30:15 51°13.665 2°55.958 1.1 26 3.6 101930 70
2009-03-30 06:30:20 51°13.665 2°55.959 1.5 24 3.6 101930 70
2009-03-30 06:30:25 51°13.665 2°55.958 1.1 20 3.6 101930 70
2009-03-30 06:30:30 51°13.664 2°55.958 1.4 18 3.6 101930 70
2009-03-30 06:30:35 51°13.664 2°55.958 1.9 10 3.6 101930 70
2009-03-30 06:30:40 51°13.663 2°55.958 1.8 4 3.6 101930 70
2009-03-30 06:30:45 51°13.663 2°55.958 1.7 10 3.6 101930 70
2009-03-30 06:30:50 51°13.663 2°55.957 2 10 3.6 101930 70
2009-03-30 06:30:55 51°13.663 2°55.957 2.1 8 3.6 101930 70
2009-03-30 06:31:00 51°13.663 2°55.957 2.1 14 3.6 101930 70
2009-03-30 06:31:05 51°13.662 2°55.957 1.7 -999 3.6 101930 70
2009-03-30 06:31:10 51°13.662 2°55.957 1.7 13 3.6 101930 70
2009-03-30 06:31:15 51°13.662 2°55.957 1.2 3 3.6 101940 71
2009-03-30 06:31:19 51°13.662 2°55.958 1.6 13 3.6 101940 71
2009-03-30 06:31:25 51°13.663 2°55.958 2 9 3.7 101930 70
2009-03-30 06:31:30 51°13.663 2°55.957 2.2 13 3.7 101930 70
2009-03-30 06:31:35 51°13.663 2°55.958 1.5 20 3.6 101940 70
2009-03-30 06:31:40 51°13.664 2°55.958 1.8 13 3.6 101940 70
2009-03-30 06:31:45 51°13.664 2°55.958 2.8 4 3.6 101930 70
2009-03-30 06:31:50 51°13.664 2°55.958 3.1 14 3.6 101930 70
2009-03-30 06:31:55 51°13.664 2°55.958 3.4 19 3.6 101940 70
2009-03-30 06:32:00 51°13.664 2°55.958 2.9 15 3.6 101940 70
2009-03-30 06:32:05 51°13.664 2°55.958 2.6 15 3.6 101930 70
2009-03-30 06:32:10 51°13.663 2°55.958 2.5 3 3.6 101930 70
2009-03-30 06:32:15 51°13.663 2°55.958 2.5 16 3.6 101930 70
2009-03-30 06:32:19 51°13.663 2°55.958 2.7 22 3.6 101930 70
2009-03-30 06:32:25 51°13.663 2°55.958 3.3 20 3.6 101930 70
2009-03-30 06:32:30 51°13.663 2°55.957 2.7 10 3.6 101930 70
2009-03-30 06:32:35 51°13.663 2°55.957 2.8 15 3.7 101940 70
2009-03-30 06:32:40 51°13.663 2°55.958 2.7 14 3.7 101940 70
2009-03-30 06:32:45 51°13.663 2°55.958 2.6 15 3.6 101930 70
2009-03-30 06:32:50 51°13.664 2°55.958 2.1 3 3.6 101930 70
2009-03-30 06:32:55 51°13.663 2°55.957 2.6 8 3.6 101930 70
2009-03-30 06:33:01 51°13.662 2°55.957 2.3 2 3.6 101930 70
2009-03-30 06:33:05 51°13.662 2°55.957 2.1 5 3.6 101930 70
2009-03-30 06:33:10 51°13.662 2°55.957 1.9 5 3.6 101930 70
2009-03-30 06:33:15 51°13.662 2°55.957 1.6 7 3.6 101930 70
2009-03-30 06:33:20 51°13.662 2°55.957 1.4 9 3.6 101930 70
2009-03-30 06:33:25 51°13.662 2°55.957 1.9 11 3.6 101930 70
2009-03-30 06:33:30 51°13.662 2°55.958 2.2 16 3.6 101930 70
2009-03-30 06:33:35 51°13.662 2°55.958 2 3 3.6 101930 70
2009-03-30 06:33:41 51°13.662 2°55.958 1.8 21 3.6 101930 70
2009-03-30 06:33:46 51°13.662 2°55.958 2.6 21 3.7 101930 70
2009-03-30 06:33:52 51°13.662 2°55.958 2.6 25 3.7 101930 70
2009-03-30 06:33:57 51°13.662 2°55.958 2.5 34 3.7 101930 70
2009-03-30 06:34:02 51°13.662 2°55.958 1.2 38 3.7 101930 70
2009-03-30 06:34:07 51°13.662 2°55.958 1.6 12 3.7 101930 70
2009-03-30 06:34:13 51°13.662 2°55.958 2.4 39 3.7 101930 70
2009-03-30 06:34:18 51°13.662 2°55.958 1.1 354 3.7 101930 70
2009-03-30 06:34:22 51°13.663 2°55.958 2.4 357 3.7 101930 70
2009-03-30 06:34:27 51°13.663 2°55.958 2.1 22 3.7 101930 70
2009-03-30 06:34:32 51°13.663 2°55.958 2.6 12 3.7 101930 70
2009-03-30 06:34:37 51°13.663 2°55.958 1.9 4 3.7 101930 70
2009-03-30 06:34:42 51°13.663 2°55.958 1.9 7 3.7 101930 70
2009-03-30 06:34:46 51°13.663 2°55.958 2.8 15 3.7 101940 70
2009-03-30 06:34:51 51°13.663 2°55.958 2.6 13 3.7 101940 70
2009-03-30 06:34:56 51°13.663 2°55.958 2.4 1 3.7 101930 70
2009-03-30 06:35:01 51°13.663 2°55.958 3 12 3.7 101930 70
2009-03-30 06:35:06 51°13.663 2°55.958 2.5 10 3.7 101930 70
2009-03-30 06:35:10 51°13.663 2°55.958 2.8 16 3.7 101930 70
2009-03-30 06:35:15 51°13.663 2°55.958 2.9 18 3.7 101930 70
2009-03-30 06:35:21 51°13.663 2°55.958 2.9 10 3.7 101930 70
2009-03-30 06:35:26 51°13.663 2°55.958 2.8 15 3.7 101930 70
2009-03-30 06:35:31 51°13.663 2°55.958 3.3 12 3.7 101930 70
2009-03-30 06:35:37 51°13.663 2°55.958 2.8 11 3.7 101930 70
2009-03-30 06:35:42 51°13.663 2°55.958 3.7 6 3.7 101930 70
2009-03-30 06:35:47 51°13.663 2°55.958 3.2 11 3.7 101930 70
2009-03-30 06:35:52 51°13.663 2°55.958 2.5 8 3.7 101930 70
2009-03-30 06:35:57 51°13.663 2°55.958 2.3 16 3.7 101930 70
2009-03-30 06:36:02 51°13.663 2°55.958 2.5 9 3.7 101930 70
2009-03-30 06:36:06 51°13.663 2°55.958 2.3 358 3.7 101930 70
2009-03-30 06:36:11 51°13.663 2°55.958 2.3 356 3.7 101930 70
2009-03-30 06:36:16 51°13.663 2°55.958 2.3 7 3.7 101930 70
2009-03-30 06:36:21 51°13.663 2°55.958 2.7 9 3.7 101930 70
2009-03-30 06:36:26 51°13.663 2°55.958 3.2 8 3.7 101940 70
2009-03-30 06:36:31 51°13.663 2°55.958 2.4 20 3.7 101940 70
2009-03-30 06:36:36 51°13.663 2°55.958 3.2 15 3.7 101930 70
2009-03-30 06:36:41 51°13.663 2°55.958 3.3 10 3.7 101930 70
2009-03-30 06:36:45 51°13.663 2°55.959 2.6 17 3.7 101930 70
2009-03-30 06:36:50 51°13.663 2°55.958 2.4 14 3.7 101930 70
2009-03-30 06:36:55 51°13.663 2°55.958 2.4 5 3.7 101940 70
2009-03-30 06:37:01 51°13.663 2°55.958 2.4 5 3.7 101940 70
2009-03-30 06:37:06 51°13.663 2°55.958 2.4 5 3.7 101940 70
2009-03-30 06:37:10 51°13.663 2°55.958 2.4 5 3.7 101940 70
2009-03-30 06:37:15 51°13.663 2°55.958 2.4 5 3.7 101940 70
2009-03-30 06:37:21 51°13.663 2°55.958 2.4 5 3.7 101940 70
2009-03-30 06:37:26 51°13.663 2°55.958 -999 -999 -999 -999 -999
2009-03-30 06:37:31 51°13.663 2°55.958 -999 -999 -999 -999 -999
2009-03-30 06:37:35 51°13.663 2°55.958 -999 20 -999 -999 -999
2009-03-30 06:37:40 51°13.663 2°55.958 2.6 13 -999 -999 -999
2009-03-30 06:37:45 51°13.662 2°55.958 4.8 15 -999 -999 -999
2009-03-30 06:37:50 51°13.662 2°55.958 4.8 22 -999 -999 -999
2009-03-30 06:37:55 51°13.662 2°55.958 4.3 24 3.7 -999 70
2009-03-30 06:38:00 51°13.662 2°55.958 3.1 17 3.7 -999 70
2009-03-30 06:38:05 51°13.662 2°55.958 3.8 20 3.7 -999 70
2009-03-30 06:38:10 51°13.662 2°55.958 4.1 18 3.7 -999 70
2009-03-30 06:38:15 51°13.662 2°55.958 4.1 22 3.7 101940 69
2009-03-30 06:38:19 51°13.662 2°55.958 3.6 14 3.7 101940 69
2009-03-30 06:38:25 51°13.662 2°55.958 3.6 14 3.7 101940 69
2009-03-30 06:38:30 51°13.662 2°55.958 3.7 21 3.7 101940 69
2009-03-30 06:38:35 51°13.662 2°55.958 2.9 26 3.7 101940 69
2009-03-30 06:38:40 51°13.662 2°55.958 3 21 3.7 101940 69
2009-03-30 06:38:45 51°13.662 2°55.957 2.7 24 3.7 101940 69
2009-03-30 06:38:50 51°13.662 2°55.956 2.5 25 3.7 101940 69
2009-03-30 06:38:55 51°13.663 2°55.953 3.2 23 3.7 101940 69
2009-03-30 06:39:00 51°13.664 2°55.95 3.6 30 3.7 101940 69
2009-03-30 06:39:05 51°13.665 2°55.947 3.7 36 3.7 101940 69
2009-03-30 06:39:10 51°13.666 2°55.944 3.1 33 3.7 101940 69
2009-03-30 06:39:17 51°13.667 2°55.939 2.8 22 3.7 101940 69
2009-03-30 06:39:22 51°13.669 2°55.936 2 19 3.7 101940 69
2009-03-30 06:39:27 51°13.67 2°55.932 2.9 31 3.7 101940 69
2009-03-30 06:39:33 51°13.671 2°55.928 3.3 31 3.7 101940 69
2009-03-30 06:39:38 51°13.673 2°55.925 3.3 28 3.7 101940 69
2009-03-30 06:39:43 51°13.674 2°55.921 2.9 25 3.7 101940 69
2009-03-30 06:39:48 51°13.676 2°55.917 2.5 38 3.7 101940 69
2009-03-30 06:39:54 51°13.677 2°55.913 1.8 38 3.7 101940 69
2009-03-30 06:39:58 51°13.678 2°55.91 1.7 37 3.7 101940 69
2009-03-30 06:40:03 51°13.68 2°55.906 2 39 3.7 101940 69
2009-03-30 06:40:09 51°13.682 2°55.9 2.3 77 3.7 101940 69
2009-03-30 06:40:14 51°13.683 2°55.896 2.3 31 3.7 101940 69
2009-03-30 06:40:19 51°13.685 2°55.891 2.6 44 3.7 101940 69
2009-03-30 06:40:24 51°13.686 2°55.886 2.8 34 3.7 101940 69
2009-03-30 06:40:29 51°13.688 2°55.88 3 36 3.7 101940 69
2009-03-30 06:40:34 51°13.689 2°55.875 2.6 41 3.7 101940 69
2009-03-30 06:40:39 51°13.691 2°55.869 3.5 26 3.7 101940 69
2009-03-30 06:40:44 51°13.692 2°55.862 3.7 26 3.7 101940 69
2009-03-30 06:40:49 51°13.693 2°55.856 3.1 35 3.7 101940 69
2009-03-30 06:40:54 51°13.694 2°55.85 3.6 33 3.7 101940 69
2009-03-30 06:40:59 51°13.695 2°55.843 4 23 3.7 101940 69
2009-03-30 06:41:04 51°13.696 2°55.837 3.3 29 3.7 101940 69
2009-03-30 06:41:09 51°13.697 2°55.83 2.9 45 3.7 101940 69
2009-03-30 06:41:14 51°13.698 2°55.824 3.1 38 3.7 101940 69
2009-03-30 06:41:19 51°13.699 2°55.818 2.7 78 3.7 101940 69
2009-03-30 06:41:24 51°13.7 2°55.811 2.8 43 3.7 101940 69
2009-03-30 06:41:29 51°13.701 2°55.805 2.4 38 3.8 101950 69
2009-03-30 06:41:34 51°13.701 2°55.798 3.5 44 3.8 101950 69
2009-03-30 06:41:39 51°13.702 2°55.792 2.6 73 3.8 101950 69
2009-03-30 06:41:44 51°13.702 2°55.785 2.9 44 3.8 101950 69
2009-03-30 06:41:49 51°13.703 2°55.779 3.2 42 3.8 101940 69
2009-03-30 06:41:54 51°13.703 2°55.773 3.1 33 3.8 101940 69
2009-03-30 06:41:59 51°13.703 2°55.768 3.5 21 3.8 101950 69
2009-03-30 06:42:04 51°13.703 2°55.762 3.4 34 3.8 101950 69
2009-03-30 06:42:09 51°13.704 2°55.757 3.2 34 3.8 101940 69
2009-03-30 06:42:14 51°13.704 2°55.753 3.6 41 3.8 101940 69
2009-03-30 06:42:19 51°13.704 2°55.749 2.9 38 3.8 101940 69
2009-03-30 06:42:24 51°13.704 2°55.746 2.9 37 3.8 101940 69
2009-03-30 06:42:29 51°13.704 2°55.744 2.7 37 3.8 101940 69
2009-03-30 06:42:34 51°13.704 2°55.743 2.1 42 3.8 101940 69
2009-03-30 06:42:38 51°13.705 2°55.742 2.4 28 3.8 101940 69
2009-03-30 06:42:43 51°13.705 2°55.741 2.8 41 3.8 101940 69
2009-03-30 06:42:48 51°13.706 2°55.741 2.3 77 3.8 101950 69
2009-03-30 06:42:53 51°13.706 2°55.741 2.1 37 3.8 101950 69
2009-03-30 06:42:58 51°13.707 2°55.742 1.8 21 3.8 101940 69
2009-03-30 06:43:02 51°13.708 2°55.742 1.6 32 3.8 101940 69
2009-03-30 06:43:07 51°13.709 2°55.743 1.9 25 3.8 101940 69
2009-03-30 06:43:12 51°13.71 2°55.745 1.4 42 3.8 101940 69
2009-03-30 06:43:17 51°13.711 2°55.746 1.7 28 3.8 101940 69
2009-03-30 06:43:22 51°13.712 2°55.746 3.4 36 3.8 101940 69
2009-03-30 06:43:26 51°13.713 2°55.746 2.9 24 3.8 101940 69
2009-03-30 06:43:31 51°13.713 2°55.747 2.3 36 3.8 101940 69
2009-03-30 06:43:36 51°13.713 2°55.747 2 73 3.8 101950 69
2009-03-30 06:43:41 51°13.713 2°55.746 1.7 30 3.8 101950 69
2009-03-30 06:43:46 51°13.713 2°55.746 1.9 81 3.8 101940 69
2009-03-30 06:43:50 51°13.713 2°55.746 2.7 35 3.8 101940 69
2009-03-30 06:43:55 51°13.712 2°55.745 3.3 20 3.8 101940 69
2009-03-30 06:43:59 51°13.711 2°55.744 2.7 38 3.8 101940 69
2009-03-30 06:44:05 51°13.71 2°55.743 1.7 25 3.9 101940 69
2009-03-30 06:44:10 51°13.709 2°55.742 2.6 36 3.9 101940 69
2009-03-30 06:44:16 51°13.707 2°55.741 2 24 3.9 101940 69
2009-03-30 06:44:22 51°13.706 2°55.74 1.7 36 3.9 101940 69
2009-03-30 06:44:27 51°13.706 2°55.74 2.3 74 3.9 101940 69
2009-03-30 06:44:31 51°13.707 2°55.74 2.2 38 3.9 101940 69
2009-03-30 06:44:36 51°13.708 2°55.74 1.6 78 3.9 101940 69
2009-03-30 06:44:41 51°13.711 2°55.74 1.1 31 3.9 101940 69
2009-03-30 06:44:46 51°13.713 2°55.739 1.8 283 3.9 101940 69
2009-03-30 06:44:51 51°13.717 2°55.737 1.5 263 3.9 101940 69
2009-03-30 06:44:56 51°13.72 2°55.735 1.5 260 3.9 101940 69
2009-03-30 06:45:01 51°13.725 2°55.731 2.6 253 3.9 101940 69
2009-03-30 06:45:05 51°13.728 2°55.728 2.1 19 4 101940 69
2009-03-30 06:45:10 51°13.734 2°55.723 2.6 247 4 101940 69
2009-03-30 06:45:15 51°13.74 2°55.717 2.5 282 4 101940 69
2009-03-30 06:45:19 51°13.745 2°55.712 2.7 240 4 101940 69
2009-03-30 06:45:25 51°13.754 2°55.704 1.9 17 4 101940 69
2009-03-30 06:45:30 51°13.761 2°55.697 2.2 238 4 101940 69
2009-03-30 06:45:35 51°13.769 2°55.689 2.3 284 4 101940 69
2009-03-30 06:45:40 51°13.777 2°55.681 2.2 319 4 101940 69
2009-03-30 06:45:45 51°13.786 2°55.673 2.3 286 4.1 101940 69
2009-03-30 06:45:50 51°13.795 2°55.665 2.6 324 4.1 101940 69
2009-03-30 06:45:55 51°13.805 2°55.657 2.7 319 4.1 101940 68
2009-03-30 06:46:00 51°13.815 2°55.648 2.9 32 4.1 101940 68
2009-03-30 06:46:05 51°13.825 2°55.64 2.4 287 4.1 101940 68
2009-03-30 06:46:10 51°13.835 2°55.632 1.9 322 4.1 101940 68
2009-03-30 06:46:15 51°13.846 2°55.623 2.3 287 4.1 101940 68
2009-03-30 06:46:20 51°13.856 2°55.615 2.5 38 4.1 101940 68
2009-03-30 06:46:25 51°13.867 2°55.606 2.4 280 4.1 101940 68
2009-03-30 06:46:30 51°13.879 2°55.598 3 320 4.1 101940 68
2009-03-30 06:46:35 51°13.89 2°55.589 2.3 324 4.1 101940 68
2009-03-30 06:46:41 51°13.903 2°55.578 3.1 330 4.1 101940 68
2009-03-30 06:46:45 51°13.912 2°55.571 3.9 284 4.1 101940 68
2009-03-30 06:46:50 51°13.924 2°55.562 2.6 322 4.1 101940 68
2009-03-30 06:46:55 51°13.935 2°55.554 2.5 320 4.1 101940 68
2009-03-30 06:47:00 51°13.947 2°55.545 4.5 327 4.1 101940 68
2009-03-30 06:47:05 51°13.959 2°55.535 4.5 286 4.1 101940 68
2009-03-30 06:47:10 51°13.97 2°55.527 4 37 4.1 101940 68
2009-03-30 06:47:15 51°13.982 2°55.518 4 280 4.1 101940 68
2009-03-30 06:47:19 51°13.991 2°55.511 3.3 317 4.1 101940 68
2009-03-30 06:47:25 51°14.005 2°55.5 3.4 26 4.1 101940 68
2009-03-30 06:47:30 51°14.017 2°55.492 3.2 321 4.1 101940 68
2009-03-30 06:47:35 51°14.029 2°55.484 3.6 281 4.1 101930 68
2009-03-30 06:47:40 51°14.041 2°55.476 3.6 37 4.1 101930 68
2009-03-30 06:47:45 51°14.053 2°55.467 4.4 279 4.1 101940 68
2009-03-30 06:47:50 51°14.065 2°55.459 4.1 30 4.1 101940 68
2009-03-30 06:47:55 51°14.077 2°55.451 4 20 4.1 101940 68
2009-03-30 06:48:00 51°14.089 2°55.442 2.6 31 4.1 101940 68
2009-03-30 06:48:05 51°14.101 2°55.433 2.6 317 4.1 101950 68
2009-03-30 06:48:10 51°14.112 2°55.423 2.9 326 4.1 101950 68
2009-03-30 06:48:15 51°14.124 2°55.414 5.2 280 4.1 101940 68
2009-03-30 06:48:20 51°14.135 2°55.404 4.8 30 4.1 101940 68
2009-03-30 06:48:25 51°14.147 2°55.394 4.6 287 4.1 101940 68
2009-03-30 06:48:30 51°14.158 2°55.385 3.1 36 4.1 101940 68
2009-03-30 06:48:35 51°14.169 2°55.374 4.1 280 4.1 101940 68
2009-03-30 06:48:39 51°14.178 2°55.367 4 35 4.1 101940 68
2009-03-30 06:48:45 51°14.192 2°55.354 4.2 279 4.1 101940 68
2009-03-30 06:48:50 51°14.203 2°55.342 3.5 38 4.1 101940 68
2009-03-30 06:48:55 51°14.213 2°55.33 3.9 318 4.1 101940 68
2009-03-30 06:49:00 51°14.224 2°55.317 3.2 321 4.1 101940 68
2009-03-30 06:49:06 51°14.236 2°55.301 4.2 281 4.1 101940 67
2009-03-30 06:49:10 51°14.244 2°55.29 2.6 34 4.1 101940 67
2009-03-30 06:49:15 51°14.254 2°55.275 3.9 25 4.1 101940 67
2009-03-30 06:49:19 51°14.262 2°55.264 5.1 32 4.1 101940 67
2009-03-30 06:49:25 51°14.273 2°55.246 5.1 280 4.1 101940 67
2009-03-30 06:49:30 51°14.283 2°55.231 5.3 316 4.1 101940 67
2009-03-30 06:49:35 51°14.292 2°55.215 5.2 280 4.2 101940 67
2009-03-30 06:49:40 51°14.302 2°55.199 6.3 233 4.2 101940 67
2009-03-30 06:49:45 51°14.311 2°55.182 5 281 4.1 101930 67
2009-03-30 06:49:50 51°14.321 2°55.166 4.2 32 4.1 101930 67
2009-03-30 06:49:55 51°14.331 2°55.149 4.5 23 4.2 101940 67
2009-03-30 06:49:59 51°14.338 2°55.136 4.8 34 4.2 101940 67
2009-03-30 06:50:05 51°14.35 2°55.115 5.4 26 4.2 101930 67
2009-03-30 06:50:10 51°14.359 2°55.098 5.7 234 4.2 101930 67
2009-03-30 06:50:15 51°14.369 2°55.08 6.4 280 4.2 101930 67
2009-03-30 06:50:20 51°14.378 2°55.063 8.6 33 4.2 101930 67
2009-03-30 06:50:25 51°14.387 2°55.045 6.3 285 4.2 101950 67
2009-03-30 06:50:30 51°14.396 2°55.027 7.5 30 4.2 101950 67
2009-03-30 06:50:35 51°14.405 2°55.009 8.6 285 4.2 101940 66
2009-03-30 06:50:39 51°14.412 2°54.994 8 238 4.2 101940 66
2009-03-30 06:50:45 51°14.42 2°54.97 9 284 4.2 101930 66
2009-03-30 06:50:50 51°14.426 2°54.949 9.6 35 4.2 101930 66
2009-03-30 06:50:55 51°14.43 2°54.928 8.5 22 4.2 101930 66
2009-03-30 06:51:00 51°14.434 2°54.905 9.4 37 4.2 101930 66
2009-03-30 06:51:05 51°14.437 2°54.882 10.1 280 4.3 101930 66
2009-03-30 06:51:10 51°14.438 2°54.858 11.1 33 4.3 101930 66
2009-03-30 06:51:15 51°14.438 2°54.834 10.8 21 4.3 101900 65
2009-03-30 06:51:19 51°14.438 2°54.815 8.7 317 4.3 101900 65
2009-03-30 06:51:25 51°14.435 2°54.786 8.2 280 4.3 101910 65
2009-03-30 06:51:30 51°14.432 2°54.761 9 319 4.3 101910 65
2009-03-30 06:51:35 51°14.428 2°54.736 9.7 283 4.4 101920 65
2009-03-30 06:51:40 51°14.423 2°54.712 11.6 320 4.4 101920 65
2009-03-30 06:51:46 51°14.416 2°54.683 9 282 4.4 101910 65
2009-03-30 06:51:50 51°14.411 2°54.663 12 317 4.4 101910 65
2009-03-30 06:51:55 51°14.404 2°54.639 10.3 279 4.4 101910 65
2009-03-30 06:51:59 51°14.399 2°54.619 12 319 4.4 101910 65
2009-03-30 06:52:05 51°14.39 2°54.589 11.3 284 4.4 101910 65
2009-03-30 06:52:10 51°14.383 2°54.565 11.7 320 4.4 101900 66
2009-03-30 06:52:14 51°14.376 2°54.546 9.8 281 4.4 101900 66
2009-03-30 06:52:20 51°14.367 2°54.517 11.3 321 4.4 101900 66
2009-03-30 06:52:25 51°14.359 2°54.492 13.2 281 4.4 101900 66
2009-03-30 06:52:30 51°14.351 2°54.468 12.9 316 4.4 101900 66
2009-03-30 06:52:35 51°14.343 2°54.444 13 281 4.4 101900 66
2009-03-30 06:52:40 51°14.335 2°54.419 14 321 4.4 101910 66
2009-03-30 06:52:45 51°14.327 2°54.394 11.3 282 4.4 101910 66
2009-03-30 06:52:50 51°14.319 2°54.369 11.1 316 4.4 101910 66
2009-03-30 06:52:54 51°14.313 2°54.35 10.7 283 4.4 101910 66
2009-03-30 06:53:00 51°14.303 2°54.32 12.4 319 4.4 101890 65
2009-03-30 06:53:05 51°14.295 2°54.296 13 288 4.4 101890 65
2009-03-30 06:53:10 51°14.288 2°54.272 12.5 318 4.4 101890 65
2009-03-30 06:53:15 51°14.28 2°54.249 10.4 280 4.4 101900 65
2009-03-30 06:53:20 51°14.275 2°54.228 10.8 315 4.4 101900 65
2009-03-30 06:53:25 51°14.272 2°54.207 7.9 280 4.4 101910 65
2009-03-30 06:53:30 51°14.271 2°54.188 9.5 239 4.4 101910 65
2009-03-30 06:53:35 51°14.27 2°54.17 7.2 281 4.4 101920 65
2009-03-30 06:53:40 51°14.271 2°54.153 9 244 4.4 101930 65
2009-03-30 06:53:45 51°14.272 2°54.138 6.7 282 4.4 101930 65
2009-03-30 06:53:50 51°14.274 2°54.124 6.8 246 4.4 101920 66
2009-03-30 06:53:54 51°14.277 2°54.113 6.1 281 4.4 101920 66
2009-03-30 06:54:00 51°14.282 2°54.099 5.6 258 4.4 101920 66
2009-03-30 06:54:06 51°14.287 2°54.087 4.8 284 4.4 101940 66
2009-03-30 06:54:10 51°14.292 2°54.08 4.1 262 4.4 101940 66
2009-03-30 06:54:15 51°14.297 2°54.072 2.6 281 4.4 101940 66
2009-03-30 06:54:20 51°14.303 2°54.065 3.7 261 4.4 101940 66
2009-03-30 06:54:25 51°14.31 2°54.059 3.6 73 4.4 101940 66
2009-03-30 06:54:30 51°14.318 2°54.054 2.3 36 4.5 101950 67
2009-03-30 06:54:34 51°14.324 2°54.051 2.9 74 4.5 101950 67
2009-03-30 06:54:40 51°14.334 2°54.047 2 39 4.5 101950 67
2009-03-30 06:54:46 51°14.345 2°54.045 2.1 79 4.5 101950 67
2009-03-30 06:54:51 51°14.354 2°54.044 1.4 37 4.5 101950 67
2009-03-30 06:54:55 51°14.362 2°54.043 0.9 73 4.5 101950 67
2009-03-30 06:55:01 51°14.375 2°54.044 1 36 4.5 101950 67
2009-03-30 06:55:06 51°14.386 2°54.045 0.7 291 4.5 101950 67
2009-03-30 06:55:11 51°14.397 2°54.047 0.6 336 4.5 101950 67
2009-03-30 06:55:16 51°14.409 2°54.048 1.2 78 4.5 101950 67
2009-03-30 06:55:21 51°14.421 2°54.05 1.1 35 4.5 101950 67
2009-03-30 06:55:26 51°14.434 2°54.051 1.8 76 4.5 101950 67
2009-03-30 06:55:31 51°14.448 2°54.052 1.7 29 4.5 101950 67
2009-03-30 06:55:36 51°14.461 2°54.054 1.6 73 4.5 101950 67
2009-03-30 06:55:41 51°14.475 2°54.055 1.3 269 4.5 101960 67
2009-03-30 06:55:46 51°14.489 2°54.056 1.3 287 4.5 101960 67
2009-03-30 06:55:51 51°14.503 2°54.058 1.6 257 4.6 101960 67
2009-03-30 06:55:56 51°14.518 2°54.06 1.4 286 4.6 101960 67
2009-03-30 06:56:01 51°14.533 2°54.062 2.5 255 4.6 101950 67
2009-03-30 06:56:06 51°14.548 2°54.063 3.1 282 4.6 101950 67
2009-03-30 06:56:11 51°14.564 2°54.065 2.2 253 4.6 101950 67
2009-03-30 06:56:15 51°14.576 2°54.067 2.4 281 4.6 101950 67
2009-03-30 06:56:21 51°14.595 2°54.069 1.6 237 4.6 101950 67
2009-03-30 06:56:26 51°14.61 2°54.071 1.3 282 4.6 101960 67
2009-03-30 06:56:31 51°14.626 2°54.074 1 249 4.6 101960 67
2009-03-30 06:56:36 51°14.642 2°54.076 1.3 287 4.6 101960 67
2009-03-30 06:56:41 51°14.658 2°54.078 1.3 244 4.6 101950 67
2009-03-30 06:56:46 51°14.673 2°54.081 2.6 284 4.6 101950 67
2009-03-30 06:56:51 51°14.689 2°54.084 2.2 244 4.6 101950 67
2009-03-30 06:56:56 51°14.705 2°54.088 1.9 279 4.6 101950 67
2009-03-30 06:57:01 51°14.721 2°54.091 2.6 252 4.6 101950 67
2009-03-30 06:57:06 51°14.736 2°54.094 2.6 285 4.6 101950 67
2009-03-30 06:57:11 51°14.752 2°54.098 2.4 256 4.6 101950 67
2009-03-30 06:57:16 51°14.768 2°54.101 1.8 285 4.6 101960 67
2009-03-30 06:57:21 51°14.784 2°54.105 1.4 262 4.6 101950 67
2009-03-30 06:57:26 51°14.799 2°54.108 2.3 281 4.6 101950 67
2009-03-30 06:57:31 51°14.815 2°54.111 2.3 250 4.6 101950 67
2009-03-30 06:57:35 51°14.828 2°54.113 2.3 281 4.6 101960 67
2009-03-30 06:57:41 51°14.847 2°54.117 2.9 252 4.6 101960 67
2009-03-30 06:57:46 51°14.862 2°54.119 2.3 284 4.7 101950 67
2009-03-30 06:57:51 51°14.878 2°54.122 2.5 247 4.7 101960 67
2009-03-30 06:57:56 51°14.894 2°54.124 2.2 288 4.7 101960 67
2009-03-30 06:58:00 51°14.906 2°54.126 2.3 246 4.7 101950 66
2009-03-30 06:58:06 51°14.925 2°54.128 1.9 285 4.7 101950 66
2009-03-30 06:58:10 51°14.938 2°54.131 2.6 253 4.7 101950 67
2009-03-30 06:58:14 51°14.951 2°54.132 2.2 287 4.7 101950 67
2009-03-30 06:58:20 51°14.97 2°54.135 2.9 254 4.7 101950 67
2009-03-30 06:58:26 51°14.989 2°54.137 2 279 4.7 101960 66
2009-03-30 06:58:31 51°15.005 2°54.141 2.2 243 4.7 101950 66
2009-03-30 06:58:36 51°15.02 2°54.144 2.4 281 4.7 101950 66
2009-03-30 06:58:41 51°15.036 2°54.146 2.6 253 4.7 101950 66
2009-03-30 06:58:46 51°15.052 2°54.149 2.9 280 4.7 101950 66
2009-03-30 06:58:51 51°15.068 2°54.151 2.4 240 4.8 101950 66
2009-03-30 06:58:56 51°15.083 2°54.153 3.2 285 4.8 101950 66
2009-03-30 06:59:00 51°15.096 2°54.155 2.5 246 4.8 101950 66
2009-03-30 06:59:06 51°15.115 2°54.158 2.5 282 4.8 101950 66
2009-03-30 06:59:11 51°15.131 2°54.16 2.5 246 4.8 101960 66
2009-03-30 06:59:16 51°15.147 2°54.163 2.6 284 4.8 101960 66
2009-03-30 06:59:20 51°15.159 2°54.165 2.6 252 4.8 101960 66
2009-03-30 06:59:25 51°15.175 2°54.168 2.2 286 4.8 101950 66
2009-03-30 06:59:31 51°15.195 2°54.173 2.1 247 4.8 101950 66
2009-03-30 06:59:35 51°15.208 2°54.176 2.4 284 4.8 101950 66
2009-03-30 06:59:40 51°15.225 2°54.18 2.5 239 4.8 101950 66
2009-03-30 06:59:45 51°15.241 2°54.183 2.6 285 4.8 101950 66
2009-03-30 06:59:50 51°15.258 2°54.188 2.2 246 4.8 101960 66
2009-03-30 06:59:55 51°15.274 2°54.191 2.1 285 4.8 101960 66
2009-03-30 07:00:00 51°15.29 2°54.195 2.5 245 4.8 101950 66
2009-03-30 07:00:04 51°15.303 2°54.197 2.3 282 4.8 101950 66
2009-03-30 07:00:10 51°15.323 2°54.202 2.4 242 4.8 101950 66
2009-03-30 07:00:15 51°15.339 2°54.205 2.6 281 4.8 101950 66
2009-03-30 07:00:20 51°15.354 2°54.209 2.9 241 4.8 101960 66
2009-03-30 07:00:25 51°15.37 2°54.212 2.9 282 4.8 101960 66
2009-03-30 07:00:31 51°15.389 2°54.217 3 247 4.9 101960 66
2009-03-30 07:00:35 51°15.402 2°54.219 2.4 287 4.9 101960 66
2009-03-30 07:00:40 51°15.418 2°54.223 2.9 30 4.9 101960 66
2009-03-30 07:00:44 51°15.431 2°54.226 3 283 4.9 101960 66
2009-03-30 07:00:50 51°15.45 2°54.231 3.1 247 4.9 101960 66
2009-03-30 07:00:55 51°15.467 2°54.234 3.6 279 4.9 101960 66
2009-03-30 07:01:00 51°15.483 2°54.238 2.7 247 4.9 101960 66
2009-03-30 07:01:05 51°15.499 2°54.241 2.6 287 4.9 101960 66
2009-03-30 07:01:11 51°15.518 2°54.246 2.3 242 4.9 101960 66
2009-03-30 07:01:15 51°15.531 2°54.249 2.5 285 4.9 101960 66
2009-03-30 07:01:20 51°15.547 2°54.253 2.9 241 4.9 101960 66
2009-03-30 07:01:26 51°15.566 2°54.257 3 281 5 101960 66
2009-03-30 07:01:31 51°15.582 2°54.26 2.6 251 5 101960 66
2009-03-30 07:01:36 51°15.598 2°54.264 2.4 287 5 101960 66
2009-03-30 07:01:40 51°15.611 2°54.267 2.8 252 5 101960 66
2009-03-30 07:01:45 51°15.628 2°54.27 2.4 279 5 101960 66
2009-03-30 07:01:51 51°15.647 2°54.274 2.3 239 5 101950 66
2009-03-30 07:01:55 51°15.66 2°54.277 2.4 279 5 101950 66
2009-03-30 07:02:01 51°15.679 2°54.281 3.2 247 5 101960 66
2009-03-30 07:02:06 51°15.695 2°54.284 3.3 282 5 101960 66
2009-03-30 07:02:11 51°15.711 2°54.288 3.1 29 5 101960 66
2009-03-30 07:02:16 51°15.728 2°54.291 2.8 287 5 101960 66
2009-03-30 07:02:21 51°15.744 2°54.295 2.7 241 5 101960 66
2009-03-30 07:02:26 51°15.76 2°54.298 2.3 282 5 101960 66
2009-03-30 07:02:31 51°15.776 2°54.302 3 246 5 101960 66
2009-03-30 07:02:36 51°15.792 2°54.306 3.3 280 5 101960 66
2009-03-30 07:02:41 51°15.808 2°54.309 2.4 243 5 101960 66
2009-03-30 07:02:45 51°15.82 2°54.312 3.4 287 5 101960 66
2009-03-30 07:02:51 51°15.839 2°54.316 3.2 250 5 101960 66
2009-03-30 07:02:56 51°15.854 2°54.319 3 280 5 101960 66
2009-03-30 07:03:01 51°15.87 2°54.321 2.6 258 5.1 101960 66
2009-03-30 07:03:06 51°15.885 2°54.324 3.1 282 5.1 101960 66
2009-03-30 07:03:11 51°15.899 2°54.327 3.4 248 5.1 101950 66
2009-03-30 07:03:16 51°15.914 2°54.33 3.7 279 5.1 101950 66
2009-03-30 07:03:21 51°15.928 2°54.333 3.7 253 5.1 101950 66
2009-03-30 07:03:26 51°15.943 2°54.336 3.4 278 5.1 101960 66
2009-03-30 07:03:31 51°15.957 2°54.339 2.5 255 5.1 101960 66
2009-03-30 07:03:36 51°15.971 2°54.341 1.8 280 5.1 101960 66
2009-03-30 07:03:41 51°15.985 2°54.343 1.5 262 5.1 101960 66
2009-03-30 07:03:46 51°15.999 2°54.346 2.6 280 5.1 101960 66
2009-03-30 07:03:51 51°16.012 2°54.348 1.9 261 5.1 101960 65
2009-03-30 07:03:56 51°16.026 2°54.35 2.4 282 5.1 101960 65
2009-03-30 07:04:01 51°16.039 2°54.352 2.3 266 5.1 101960 65
2009-03-30 07:04:05 51°16.049 2°54.354 2.1 287 5.1 101960 65
2009-03-30 07:04:11 51°16.065 2°54.356 1.9 266 5.1 101960 65
2009-03-30 07:04:16 51°16.077 2°54.358 1.8 287 5.1 101950 65
2009-03-30 07:04:21 51°16.089 2°54.36 2.6 265 5.1 101950 65
2009-03-30 07:04:26 51°16.099 2°54.361 2.9 283 5.1 101950 65
2009-03-30 07:04:31 51°16.11 2°54.362 2.7 265 5.1 101950 65
2009-03-30 07:04:36 51°16.119 2°54.361 2.8 280 5.1 101960 65
2009-03-30 07:04:41 51°16.128 2°54.359 3.8 262 5.1 101950 65
2009-03-30 07:04:46 51°16.136 2°54.356 4 285 5.1 101950 65
2009-03-30 07:04:51 51°16.143 2°54.353 4 266 5.1 101950 65
2009-03-30 07:04:56 51°16.15 2°54.349 4 280 5.1 101960 65
2009-03-30 07:05:01 51°16.157 2°54.345 3.6 267 5 101950 65
2009-03-30 07:05:06 51°16.163 2°54.34 4 280 5 101950 65
2009-03-30 07:05:11 51°16.168 2°54.335 3.5 263 5 101960 65
2009-03-30 07:05:16 51°16.174 2°54.33 3.2 280 5 101960 65
2009-03-30 07:05:21 51°16.179 2°54.325 4 264 5 101960 65
2009-03-30 07:05:26 51°16.184 2°54.32 3.7 281 5 101960 64
2009-03-30 07:05:31 51°16.189 2°54.315 4.4 265 5 101960 64
2009-03-30 07:05:36 51°16.193 2°54.311 3.8 287 5 101960 64
2009-03-30 07:05:41 51°16.197 2°54.306 3.7 264 5 101960 64
2009-03-30 07:05:46 51°16.201 2°54.301 3.7 282 5 101960 64
2009-03-30 07:05:51 51°16.205 2°54.297 4.3 267 5 101960 64
2009-03-30 07:05:56 51°16.209 2°54.292 5 285 5 101960 64
2009-03-30 07:06:01 51°16.213 2°54.288 4.4 266 5 101960 64
2009-03-30 07:06:06 51°16.216 2°54.283 4.7 285 5 101960 65
2009-03-30 07:06:11 51°16.219 2°54.279 3.8 265 5 101960 65
2009-03-30 07:06:16 51°16.222 2°54.274 5.4 284 5 101960 65
2009-03-30 07:06:21 51°16.225 2°54.27 5.6 269 5 101960 65
2009-03-30 07:06:26 51°16.228 2°54.266 4 280 5 101960 65
2009-03-30 07:06:31 51°16.231 2°54.261 4.8 266 5 101960 65
2009-03-30 07:06:36 51°16.233 2°54.258 6.1 284 5 101950 65
2009-03-30 07:06:41 51°16.236 2°54.254 3.7 266 5 101960 65
2009-03-30 07:06:46 51°16.238 2°54.25 4.2 284 5 101960 65
2009-03-30 07:06:51 51°16.24 2°54.246 4.1 264 5 101960 65
2009-03-30 07:06:56 51°16.241 2°54.242 5.4 285 4.9 101960 65
2009-03-30 07:07:01 51°16.243 2°54.238 4.1 263 4.9 101960 65
2009-03-30 07:07:06 51°16.244 2°54.234 4.6 279 4.9 101960 65
2009-03-30 07:07:11 51°16.245 2°54.23 4.7 264 4.9 101960 65
2009-03-30 07:07:16 51°16.247 2°54.227 4.1 286 4.9 101960 65
2009-03-30 07:07:21 51°16.248 2°54.223 4.8 266 4.9 101960 66
2009-03-30 07:07:26 51°16.249 2°54.219 4.5 281 4.9 101960 66
2009-03-30 07:07:31 51°16.25 2°54.216 5.6 262 4.9 101960 66
2009-03-30 07:07:36 51°16.251 2°54.212 4.9 286 4.9 101960 66
2009-03-30 07:07:40 51°16.252 2°54.209 4.6 261 4.9 101960 66
2009-03-30 07:07:45 51°16.253 2°54.205 6.8 285 5 101950 66
2009-03-30 07:07:51 51°16.254 2°54.201 6.1 260 4.9 101960 67
2009-03-30 07:07:56 51°16.255 2°54.198 5.5 279 4.9 101960 67
2009-03-30 07:08:00 51°16.255 2°54.195 6.3 259 4.9 101960 67
2009-03-30 07:08:05 51°16.256 2°54.191 4.6 284 5 101960 67
2009-03-30 07:08:11 51°16.257 2°54.186 6.1 261 5 101960 67
2009-03-30 07:08:16 51°16.258 2°54.183 7 282 5 101960 67
2009-03-30 07:08:20 51°16.258 2°54.18 4.9 263 5 101960 67
2009-03-30 07:08:25 51°16.259 2°54.177 6 280 5 101960 67
2009-03-30 07:08:31 51°16.26 2°54.173 5.8 259 5 101960 67
2009-03-30 07:08:36 51°16.26 2°54.169 6.7 279 5 101960 67
2009-03-30 07:08:40 51°16.261 2°54.167 7.6 258 5 101960 67
2009-03-30 07:08:45 51°16.261 2°54.163 7.6 279 5 101960 67
2009-03-30 07:08:51 51°16.262 2°54.159 7.7 255 5 101960 67
2009-03-30 07:08:55 51°16.262 2°54.156 7.4 280 4.9 101960 67
2009-03-30 07:09:01 51°16.263 2°54.152 6.5 258 5 101960 67
2009-03-30 07:09:05 51°16.263 2°54.15 6.5 283 5 101960 67
2009-03-30 07:09:11 51°16.263 2°54.146 7.3 254 5 101960 67
2009-03-30 07:09:16 51°16.264 2°54.142 6.2 283 5 101960 67
2009-03-30 07:09:20 51°16.264 2°54.14 8 257 5 101960 67
2009-03-30 07:09:26 51°16.265 2°54.136 8 281 5 101960 67
2009-03-30 07:09:31 51°16.265 2°54.133 7 257 5 101960 67
2009-03-30 07:09:36 51°16.266 2°54.13 7 279 5 101960 67
2009-03-30 07:09:41 51°16.266 2°54.127 7.8 255 5 101960 68
2009-03-30 07:09:46 51°16.266 2°54.124 6.8 281 5 101960 68
2009-03-30 07:09:51 51°16.267 2°54.121 7.5 258 5 101960 68
2009-03-30 07:09:56 51°16.267 2°54.117 7.6 279 5 101960 68
2009-03-30 07:10:01 51°16.267 2°54.114 7.4 256 5 101960 68
2009-03-30 07:10:05 51°16.268 2°54.112 6.8 281 5 101950 67
2009-03-30 07:10:11 51°16.268 2°54.108 7.4 252 5 101960 67
2009-03-30 07:10:16 51°16.268 2°54.105 6.7 287 5 101960 67
2009-03-30 07:10:21 51°16.269 2°54.102 6.6 253 5 101960 67
2009-03-30 07:10:25 51°16.269 2°54.1 7.6 281 5 101960 67
2009-03-30 07:10:31 51°16.269 2°54.096 6.7 249 5 101960 67
2009-03-30 07:10:36 51°16.27 2°54.094 7.3 280 5 101960 67
2009-03-30 07:10:41 51°16.27 2°54.091 7.2 247 5 101960 67
2009-03-30 07:10:45 51°16.27 2°54.089 6.8 285 5 101960 67
2009-03-30 07:10:51 51°16.271 2°54.085 6.1 252 5 101960 67
2009-03-30 07:10:56 51°16.271 2°54.082 5.7 282 5 101960 67
2009-03-30 07:11:01 51°16.271 2°54.08 6.8 248 5 101960 67
2009-03-30 07:11:05 51°16.271 2°54.078 5.6 281 5 101960 67
2009-03-30 07:11:11 51°16.271 2°54.074 6.4 250 5 101960 67
2009-03-30 07:11:16 51°16.272 2°54.072 5.8 282 5 101960 67
2009-03-30 07:11:21 51°16.272 2°54.069 6.6 253 5 101960 67
2009-03-30 07:11:25 51°16.272 2°54.067 6 281 5 101960 67
2009-03-30 07:11:31 51°16.272 2°54.063 6.7 250 5 101960 67
2009-03-30 07:11:36 51°16.273 2°54.061 5.7 287 5 101950 67
2009-03-30 07:11:41 51°16.273 2°54.058 5.7 253 5 101960 67
2009-03-30 07:11:45 51°16.273 2°54.056 6.9 280 5 101960 67
2009-03-30 07:11:50 51°16.273 2°54.053 7.6 256 5 101960 68
2009-03-30 07:11:55 51°16.274 2°54.051 8.6 281 5 101960 68
2009-03-30 07:12:00 51°16.274 2°54.048 8.1 251 5.1 101960 68
2009-03-30 07:12:05 51°16.274 2°54.046 6.4 280 5.1 101960 68
2009-03-30 07:12:09 51°16.274 2°54.044 5.8 250 5.1 101960 68
2009-03-30 07:12:16 51°16.275 2°54.04 7.5 282 5.1 101960 68
2009-03-30 07:12:21 51°16.275 2°54.038 7.1 249 5.1 101960 68
2009-03-30 07:12:25 51°16.275 2°54.036 6 284 5.1 101950 68
2009-03-30 07:12:30 51°16.275 2°54.033 7.2 248 5.1 101960 67
2009-03-30 07:12:36 51°16.276 2°54.029 7.4 282 5.1 101960 67
2009-03-30 07:12:41 51°16.276 2°54.026 5.8 248 5.1 101960 67
2009-03-30 07:12:45 51°16.277 2°54.023 5.8 284 5.1 101950 68
2009-03-30 07:12:50 51°16.278 2°54.018 6.3 250 5.1 101960 67
2009-03-30 07:12:56 51°16.278 2°54.012 7.4 281 5.1 101960 67
2009-03-30 07:13:01 51°16.28 2°54.006 7.3 249 5.1 101960 67
2009-03-30 07:13:05 51°16.281 2°54 7 279 5.1 101960 67
2009-03-30 07:13:10 51°16.282 2°53.992 7.8 246 5.1 101960 67
2009-03-30 07:13:16 51°16.285 2°53.981 8 279 5.1 101960 67
2009-03-30 07:13:21 51°16.287 2°53.97 8.3 245 5.1 101960 67
2009-03-30 07:13:25 51°16.289 2°53.961 6.8 281 5.1 101960 67
2009-03-30 07:13:30 51°16.292 2°53.948 6.9 239 5.1 101960 67
2009-03-30 07:13:36 51°16.296 2°53.931 8.5 283 5.1 101960 67
2009-03-30 07:13:41 51°16.3 2°53.916 7.2 239 5.1 101960 67
2009-03-30 07:13:45 51°16.303 2°53.904 8.7 286 5.1 101960 67
2009-03-30 07:13:50 51°16.307 2°53.887 7.5 238 5.1 101960 67
2009-03-30 07:13:54 51°16.311 2°53.873 8.9 285 5.1 101950 67
2009-03-30 07:14:01 51°16.318 2°53.849 7.8 240 5.2 101950 67
2009-03-30 07:14:05 51°16.323 2°53.834 7.5 279 5.2 101950 67
2009-03-30 07:14:10 51°16.329 2°53.816 9.2 241 5.2 101950 67
2009-03-30 07:14:14 51°16.335 2°53.801 8 282 5.1 101960 67
2009-03-30 07:14:20 51°16.344 2°53.779 8 237 5.1 101960 67
2009-03-30 07:14:25 51°16.352 2°53.76 7.3 280 5.1 101960 67
2009-03-30 07:14:30 51°16.36 2°53.741 6.9 241 5.1 101950 67
2009-03-30 07:14:36 51°16.371 2°53.72 7 282 5.1 101950 67
2009-03-30 07:14:41 51°16.381 2°53.702 8.1 242 5.1 101950 67
2009-03-30 07:14:45 51°16.389 2°53.687 6.7 281 5.1 101960 67
2009-03-30 07:14:50 51°16.399 2°53.669 8.4 242 5.1 101950 67
2009-03-30 07:14:56 51°16.412 2°53.648 8.1 284 5.1 101950 67
2009-03-30 07:15:01 51°16.422 2°53.63 8.4 241 5.1 101950 67
2009-03-30 07:15:05 51°16.431 2°53.616 7.1 283 5.1 101960 67
2009-03-30 07:15:10 51°16.443 2°53.599 7.2 238 5.1 101960 67
2009-03-30 07:15:16 51°16.457 2°53.577 8.5 279 5.1 101960 67
2009-03-30 07:15:21 51°16.469 2°53.559 8.7 241 5.1 101960 67
2009-03-30 07:15:25 51°16.478 2°53.545 8 282 5.1 101960 67
2009-03-30 07:15:30 51°16.49 2°53.526 8.9 235 5.1 101950 67
2009-03-30 07:15:36 51°16.505 2°53.505 8.3 281 5.1 101950 67
2009-03-30 07:15:41 51°16.517 2°53.486 7.4 238 5.1 101950 67
2009-03-30 07:15:45 51°16.527 2°53.471 8.4 282 5.1 101960 67
2009-03-30 07:15:50 51°16.539 2°53.451 8.3 237 5.1 101960 67
2009-03-30 07:15:56 51°16.554 2°53.429 7.5 280 5.2 101950 67
2009-03-30 07:16:01 51°16.566 2°53.409 8.1 240 5.2 101950 67
2009-03-30 07:16:05 51°16.576 2°53.394 7.1 280 5.1 101950 67
2009-03-30 07:16:10 51°16.588 2°53.375 6.7 31 5.1 101950 67
2009-03-30 07:16:14 51°16.598 2°53.36 8 285 5.1 101950 67
2009-03-30 07:16:21 51°16.616 2°53.333 8.2 32 5.1 101950 67
2009-03-30 07:16:25 51°16.626 2°53.318 9.4 279 5.1 101950 67
2009-03-30 07:16:30 51°16.638 2°53.298 8.2 239 5.1 101960 67
2009-03-30 07:16:34 51°16.648 2°53.283 8.5 280 5.1 101960 67
2009-03-30 07:16:40 51°16.663 2°53.26 7.6 30 5.1 101960 67
2009-03-30 07:16:45 51°16.675 2°53.241 9.2 285 5.1 101950 68
2009-03-30 07:16:50 51°16.688 2°53.222 8.7 30 5.2 101950 68
2009-03-30 07:16:56 51°16.702 2°53.199 9.8 284 5.2 101950 68
2009-03-30 07:17:01 51°16.715 2°53.179 9.5 236 5.2 101950 68
2009-03-30 07:17:05 51°16.725 2°53.164 8.2 283 5.2 101950 68
2009-03-30 07:17:10 51°16.737 2°53.144 9.5 240 5.2 101950 67
2009-03-30 07:17:16 51°16.751 2°53.121 9.7 284 5.2 101950 67
2009-03-30 07:17:21 51°16.763 2°53.101 9.1 32 5.2 101950 67
2009-03-30 07:17:25 51°16.773 2°53.086 8.9 279 5.2 101950 67
2009-03-30 07:17:30 51°16.785 2°53.066 8 34 5.1 101950 67
2009-03-30 07:17:36 51°16.799 2°53.042 7.7 280 5.1 101950 67
2009-03-30 07:17:41 51°16.81 2°53.022 9.6 238 5.1 101950 67
2009-03-30 07:17:45 51°16.82 2°53.007 8.4 285 5.1 101950 66
2009-03-30 07:17:50 51°16.832 2°52.987 8.7 238 5.1 101950 66
2009-03-30 07:17:56 51°16.846 2°52.965 8.9 282 5.1 101950 67
2009-03-30 07:18:01 51°16.858 2°52.946 7.9 240 5.1 101950 67
2009-03-30 07:18:05 51°16.868 2°52.931 8.2 283 5.2 101950 67
2009-03-30 07:18:10 51°16.88 2°52.912 9.1 238 5.2 101950 67
2009-03-30 07:18:14 51°16.889 2°52.897 9.3 284 5.2 101960 67
2009-03-30 07:18:21 51°16.905 2°52.87 8 31 5.2 101960 67
2009-03-30 07:18:25 51°16.915 2°52.854 8.6 279 5.2 101950 67
2009-03-30 07:18:30 51°16.926 2°52.835 8.1 34 5.2 101950 67
2009-03-30 07:18:34 51°16.936 2°52.819 8 285 5.2 101960 67
2009-03-30 07:18:40 51°16.95 2°52.795 8.1 32 5.2 101960 67
2009-03-30 07:18:45 51°16.961 2°52.775 9.3 281 5.2 101950 67
2009-03-30 07:18:50 51°16.973 2°52.755 8.5 33 5.3 101950 67
2009-03-30 07:18:54 51°16.982 2°52.739 8.2 281 5.3 101950 67
2009-03-30 07:19:00 51°16.996 2°52.716 8.2 237 5.3 101950 67
2009-03-30 07:19:05 51°17.008 2°52.696 8.6 278 5.3 101960 67
2009-03-30 07:19:10 51°17.02 2°52.676 10.9 234 5.3 101950 67
2009-03-30 07:19:16 51°17.034 2°52.652 9.2 285 5.3 101950 67
2009-03-30 07:19:21 51°17.046 2°52.632 10.3 30 5.3 101950 67
2009-03-30 07:19:25 51°17.056 2°52.616 8.3 284 5.3 101950 67
2009-03-30 07:19:30 51°17.068 2°52.597 10.1 239 5.3 101960 67
2009-03-30 07:19:36 51°17.082 2°52.574 10.4 283 5.3 101960 67
2009-03-30 07:19:41 51°17.095 2°52.556 8.5 239 5.3 101960 67
2009-03-30 07:19:45 51°17.105 2°52.541 9.6 281 5.3 101950 66
2009-03-30 07:19:50 51°17.117 2°52.523 9 239 5.3 101950 66
2009-03-30 07:19:56 51°17.133 2°52.501 9.6 282 5.3 101950 66
2009-03-30 07:20:01 51°17.145 2°52.484 9.9 238 5.3 101950 66
2009-03-30 07:20:05 51°17.155 2°52.469 9.1 281 5.3 101950 66
2009-03-30 07:20:10 51°17.169 2°52.452 7.7 242 5.3 101950 66
2009-03-30 07:20:16 51°17.184 2°52.431 9.2 282 5.3 101960 66
2009-03-30 07:20:21 51°17.197 2°52.413 9.5 240 5.3 101960 66
2009-03-30 07:20:25 51°17.208 2°52.4 7.9 280 5.3 101960 65
2009-03-30 07:20:30 51°17.221 2°52.382 7.3 239 5.3 101960 65
2009-03-30 07:20:34 51°17.232 2°52.369 8.1 285 5.3 101960 65
2009-03-30 07:20:41 51°17.25 2°52.345 6.6 241 5.3 101960 65
2009-03-30 07:20:45 51°17.261 2°52.332 8 285 5.3 101960 65
2009-03-30 07:20:50 51°17.275 2°52.315 7.9 234 5.3 101960 65
2009-03-30 07:20:54 51°17.285 2°52.302 7.8 284 5.3 101960 65
2009-03-30 07:21:01 51°17.304 2°52.278 7.9 240 5.3 101960 66
2009-03-30 07:21:05 51°17.315 2°52.265 6.9 284 5.3 101960 66